QPF
0.02 0.01 0.01 0.01 0.01 0.01 0.00 0.00 0.01 0.00 0.01 0.01 0.01 0.00 0.00 0.01 0.00 0.00 0.00 0.00 0.00 0.00 0.00 0.00 0.00 0.00 0.00 0.00 0.00 0.00 0.00 0.00 0.00 0.01 0.01 0.00 0.00 0.00 0.01 0.00 0.00 0.00 0.00 0.00 0.00 0.00 0.00 0.00 0.00 0.00 0.00 0.00
0.03 0.02 0.02 0.02 0.01 0.01 0.00 0.00 0.00 0.00 0.02 0.00 0.01 0.02 0.00 0.00 0.00 0.00 0.00 0.00 0.00 0.00 0.00 0.00 0.00 0.00 0.00 0.00 0.00 0.00 0.00 -0.00 0.00 0.00 0.01 0.01 0.00 0.00 0.00 0.01 0.00 0.00 0.00 0.00 0.00 0.00 0.00 0.00 0.00 0.00 0.00 0.00
0.02 0.02 0.03 0.03 0.07 0.05 0.04 0.02 0.00 0.00 0.01 0.01 0.00 -0.00 0.00 0.00 0.01 0.00 0.00 0.00 0.00 0.00 0.00 0.00 0.00 0.00 0.00 0.00 0.00 0.00 0.00 0.00 0.00 0.01 0.00 0.00 0.00 0.00 0.00 0.00 0.01 0.01 0.00 0.00 0.00 0.00 0.00 0.00 0.00 0.00 0.00 0.00
0.01 0.01 0.01 0.01 0.02 0.02 0.03 0.02 0.01 0.00 0.00 0.00 0.00 0.00 0.00 0.00 0.00 0.01 0.00 0.00 0.00 0.00 0.00 0.00 0.00 0.00 0.00 0.00 0.00 0.00 0.00 0.00 0.00 0.00 0.01 0.01 0.01 0.00 0.00 0.00 0.00 0.00 0.00 0.00 0.00 0.00 0.00 0.00 0.00 0.00 0.00 0.00
0.00 0.01 0.02 0.03 0.02 0.01 0.01 0.02 0.02 0.01 0.01 0.00 0.00 0.00 0.00 0.00 0.00 0.00 0.00 0.01 0.00 0.00 0.00 0.00 0.00 0.00 0.00 0.00 0.00 0.00 0.00 0.00 0.00 0.00 0.01 0.01 0.01 0.00 0.00 0.00 0.00 0.00 0.00 0.00 0.00 0.00 0.00 0.00 0.00 0.00 0.00 0.00
0.00 0.00 0.00 0.00 0.01 0.02 0.01 0.02 0.06 0.06 0.11 0.07 0.03 0.00 0.00 0.00 0.00 0.00 0.01 0.00 0.00 0.00 0.00 0.00 0.00 0.00 0.00 0.00 0.00 0.00 0.00 0.00 0.00 0.00 0.02 0.03 0.02 0.01 0.00 0.00 0.00 0.00 0.00 0.00 0.00 0.00 0.00 0.00 0.00 0.00 0.00 0.00
0.00 -0.00 0.00 0.00 0.00 0.00 0.01 0.02 0.02 0.13 0.10 0.13 0.11 0.07 0.04 0.00 0.00 0.00 0.00 0.00 0.00 0.00 0.00 0.00 0.00 0.00 0.00 0.00 0.00 0.00 0.00 0.00 -0.00 0.00 0.00 0.03 0.01 0.00 0.00 0.00 0.00 0.00 0.00 0.00 0.00 0.00 0.00 0.00 0.00 0.00 0.00 0.00
0.00 0.00 -0.00 -0.00 0.00 0.00 0.00 0.00 0.01 0.02 0.06 0.16 0.05 0.15 0.09 0.07 0.02 0.00 0.01 0.00 0.01 0.00 0.02 0.00 0.00 0.00 0.00 0.00 0.00 0.00 0.00 0.00 0.00 0.00 0.00 0.00 0.00 0.00 0.00 0.00 0.00 0.00 0.00 0.00 0.00 0.00 0.00 0.00 0.00 0.00 0.00 0.00
0.00 0.00 0.00 0.00 0.00 0.00 -0.00 0.00 0.00 0.00 0.01 0.02 0.04 0.05 0.10 0.07 0.03 0.00 0.01 0.01 0.00 0.00 0.00 0.01 0.00 0.00 0.00 0.00 0.00 0.00 0.00 0.00 0.00 -0.00 0.00 0.00 0.00 0.00 0.00 0.00 0.00 0.00 0.00 0.00 0.00 0.00 0.00 0.00 0.00 0.00 0.00 0.00
0.00 0.00 0.00 0.00 0.00 0.00 -0.00 0.00 0.00 0.00 0.00 0.00 0.01 0.03 0.02 0.17 0.04 0.07 0.00 0.02 0.00 0.00 0.00 0.00 0.00 0.00 0.00 0.00 0.00 0.00 0.00 0.00 0.00 0.00 0.00 0.00 0.00 0.00 0.00 0.00 0.00 0.00 0.00 0.00 0.00 0.00 0.00 0.00 0.00 0.00 0.00 0.00
0.00 0.00 0.00 0.00 0.00 0.00 -0.00 -0.00 0.00 -0.00 0.00 0.00 0.00 0.04 0.11 0.04 0.13 0.25 0.03 0.06 0.03 0.04 0.01 0.00 0.00 0.00 0.00 0.00 0.00 0.00 0.00 0.00 0.00 0.00 0.00 0.00 0.00 0.00 0.00 0.00 0.00 0.00 0.00 0.00 0.00 0.00 0.00 0.00 0.00 0.00 0.00 0.00
0.00 0.00 0.00 0.00 0.00 0.00 0.00 -0.00 0.00 0.00 -0.00 0.00 0.00 0.00 0.01 0.05 0.06 0.08 0.05 0.16 0.07 0.05 0.20 0.03 0.01 0.01 0.00 0.00 0.00 0.00 0.00 0.00 0.00 0.00 0.00 0.00 0.00 0.00 0.00 0.00 0.00 0.00 0.00 0.00 0.00 0.00 0.00 0.00 0.00 0.00 0.00 0.00
0.00 0.00 0.00 0.00 0.00 0.00 0.00 0.00 0.00 0.00 -0.00 0.00 -0.00 0.00 -0.00 0.00 0.03 0.10 0.16 0.12 0.04 0.16 0.10 0.01 0.01 0.04 0.00 0.00 0.00 0.00 0.00 0.00 0.00 0.00 0.00 0.00 0.00 0.00 0.00 0.00 0.00 0.00 0.00 0.00 0.00 0.00 0.00 0.00 0.00 0.00 0.00 0.00
0.00 0.00 0.00 0.00 0.00 0.00 0.00 0.00 0.00 0.00 0.00 0.00 0.00 0.00 0.00 0.00 0.00 0.01 0.05 0.16 0.15 0.14 0.29 0.06 0.05 0.14 0.12 0.00 0.00 0.00 0.00 0.00 0.00 0.00 0.00 0.00 0.00 0.00 0.00 0.00 0.00 0.00 0.00 0.00 0.00 0.00 0.00 0.00 0.00 0.00 0.00 0.00
0.00 0.00 0.00 0.00 0.00 0.00 0.00 0.00 0.00 0.00 0.00 0.00 0.00 0.00 -0.00 0.00 0.00 0.00 0.01 0.03 0.07 0.11 0.07 0.11 0.06 0.04 0.07 0.08 0.00 0.01 0.00 0.00 0.00 0.00 0.00 0.00 0.00 0.00 0.00 0.00 0.00 0.00 0.00 0.00 0.00 0.00 0.00 0.00 0.00 0.00 0.00 0.00
0.00 0.00 0.00 0.00 0.00 0.00 0.00 0.00 0.00 0.00 0.00 0.00 0.00 -0.00 0.00 0.00 0.00 0.00 0.00 0.00 0.02 0.06 0.11 0.15 0.14 0.12 0.10 0.05 0.03 0.01 0.00 0.00 0.00 0.00 0.00 0.00 0.00 0.00 0.00 0.00 0.00 0.00 0.00 0.00 0.00 0.00 0.00 0.00 0.00 0.00 0.00 0.00
0.00 0.00 0.00 0.00 0.00 0.00 0.00 0.00 0.00 0.00 0.00 0.00 0.00 0.00 0.00 0.00 0.00 0.00 0.00 0.00 -0.00 0.01 0.02 0.04 0.09 0.18 0.13 0.11 0.16 0.14 0.02 0.01 0.11 0.03 0.00 0.00 0.00 0.00 0.00 0.00 0.00 0.00 0.00 0.00 0.00 0.00 0.00 0.00 0.00 0.00 0.00 0.00
0.00 0.00 0.00 0.00 0.00 0.00 0.00 0.00 0.00 0.00 0.00 0.00 0.00 0.00 0.00 -0.00 -0.00 0.00 0.00 -0.00 -0.00 -0.00 0.00 0.00 0.03 0.09 0.13 0.14 0.20 0.16 0.07 0.10 0.04 0.05 0.00 0.00 0.00 0.00 0.00 0.00 0.00 0.00 0.00 0.00 0.00 0.00 0.00 0.00 0.00 0.00 0.00 0.00
0.00 0.00 0.00 0.00 0.00 0.00 0.00 0.00 0.00 0.00 0.00 0.00 0.00 0.00 0.00 0.00 0.00 0.00 0.00 0.00 0.00 -0.00 0.00 -0.00 0.00 0.01 0.07 0.07 0.13 0.16 0.13 0.12 0.06 0.20 0.10 0.21 0.00 0.00 0.00 0.00 0.00 0.00 0.00 0.00 0.00 0.00 0.00 0.00 0.00 0.00 0.00 0.00
0.00 0.00 0.00 0.00 0.00 0.00 0.00 0.00 0.00 0.00 0.00 0.00 0.00 0.00 0.00 0.00 0.00 0.00 0.00 0.00 0.00 0.00 -0.00 0.00 0.01 0.00 0.00 0.06 0.05 0.12 0.15 0.17 0.15 0.10 0.18 0.13 0.06 0.03 0.01 0.00 0.00 0.00 0.00 0.00 0.00 0.00 0.00 0.00 0.00 0.00 0.00 0.00
0.00 0.00 0.00 0.00 0.00 0.00 0.00 0.00 0.00 0.00 0.00 0.00 0.00 0.00 0.00 0.00 0.00 0.00 0.00 0.00 0.00 0.00 0.00 0.00 0.00 0.00 0.02 0.02 0.03 0.09 0.13 0.09 0.14 0.15 0.15 0.13 0.22 0.08 0.08 0.01 0.00 0.00 0.00 0.00 0.00 0.00 0.00 0.00 0.00 0.00 0.00 0.00
0.00 0.00 0.00 0.00 0.00 0.00 0.00 0.00 0.00 0.00 0.00 0.00 0.00 0.00 0.00 0.00 0.00 0.00 0.00 0.00 0.00 0.00 0.00 0.00 0.00 0.00 -0.00 0.01 0.02 0.04 0.08 0.11 0.09 0.10 0.13 0.13 0.14 0.11 0.08 0.08 0.02 0.00 0.00 0.00 0.00 0.00 0.00 0.00 0.00 0.00 0.00 0.00
0.00 0.00 0.00 0.00 0.00 -0.00 -0.00 0.00 0.00 0.00 0.00 0.00 0.00 0.00 0.00 0.00 0.00 0.00 0.00 0.00 0.00 0.00 0.00 0.00 0.00 0.00 0.00 0.00 0.01 0.02 0.03 0.07 0.11 0.09 0.07 0.06 0.07 0.11 0.11 0.08 0.06 0.03 0.00 0.00 0.00 0.00 0.00 0.00 0.00 0.00 0.00 0.00
0.00 0.00 0.00 0.00 0.00 0.00 0.00 -0.00 0.00 0.00 -0.00 0.00 0.00 0.00 0.00 0.00 0.00 0.00 0.00 0.00 0.00 0.00 0.00 0.00 0.00 0.00 0.00 0.00 0.00 0.02 0.04 0.04 0.07 0.12 0.13 0.08 0.04 0.05 0.06 0.08 0.07 0.05 0.03 0.01 0.00 0.00 0.00 0.00 0.00 0.00 0.00 0.00
0.00 0.00 0.00 0.00 0.00 -0.00 -0.00 0.00 0.00 -0.00 0.00 0.00 -0.00 0.00 -0.00 -0.00 0.00 0.00 0.00 -0.00 0.00 0.00 0.00 0.00 0.00 0.00 0.00 0.00 -0.00 0.00 0.01 0.04 0.08 0.10 0.13 0.14 0.12 0.09 0.05 0.05 0.05 0.05 0.05 0.04 0.02 0.00 0.00 0.00 0.00 0.00 0.00 0.00
-0.00 0.00 -0.00 -0.00 0.00 -0.00 -0.00 0.00 0.00 0.00 0.00 -0.00 0.00 -0.00 0.00 0.00 0.00 0.00 0.00 0.00 -0.00 0.00 -0.00 -0.00 0.00 0.00 0.00 0.00 0.00 0.00 0.00 0.01 0.04 0.08 0.13 0.16 0.18 0.17 0.14 0.10 0.04 0.04 0.06 0.10 0.03 0.02 0.00 0.00 0.00 0.00 0.00 0.00
-0.00 0.00 0.00 0.00 -0.00 0.00 0.00 -0.00 0.00 -0.00 0.00 0.00 0.00 0.00 0.00 0.00 0.00 -0.00 0.00 0.00 0.00 0.00 0.00 -0.00 0.00 0.00 0.00 -0.00 0.00 -0.00 0.00 0.00 0.01 0.03 0.07 0.12 0.15 0.17 0.15 0.11 0.09 0.10 0.06 0.06 0.08 0.03 0.01 0.00 0.00 0.00 0.00 0.00
0.00 -0.00 0.00 0.00 0.00 0.00 0.00 0.00 -0.00 0.00 0.00 -0.00 0.00 0.00 0.00 0.00 0.00 0.00 0.00 0.00 0.00 0.00 0.00 0.00 -0.00 -0.00 0.00 0.00 0.00 -0.00 -0.00 0.00 0.00 0.01 0.03 0.06 0.12 0.14 0.14 0.14 0.12 0.08 0.08 0.06 0.05 0.03 0.02 0.01 0.00 0.00 0.00 0.00
-0.00 0.00 0.00 0.00 -0.00 0.00 -0.00 -0.00 0.00 -0.00 -0.00 0.00 0.00 0.00 0.00 0.00 0.00 -0.00 0.00 -0.00 0.00 0.00 0.00 0.00 0.00 -0.00 0.00 0.00 0.00 -0.00 0.00 0.00 0.00 0.00 0.02 0.04 0.07 0.11 0.14 0.13 0.09 0.07 0.06 0.04 0.04 0.05 0.02 0.02 0.01 0.00 0.00 0.00
0.00 -0.00 -0.00 0.00 0.00 -0.00 0.00 0.00 0.00 0.00 0.00 0.00 0.00 0.00 0.00 0.00 0.00 0.00 -0.00 0.00 0.00 0.00 0.00 0.00 0.00 0.00 0.00 0.00 0.00 0.00 0.00 0.00 0.00 0.00 0.00 0.02 0.05 0.08 0.11 0.13 0.11 0.09 0.05 0.04 0.04 0.04 0.03 0.03 0.02 0.01 0.00 0.00
-0.00 -0.00 0.00 0.00 0.00 0.00 0.00 0.00 0.00 -0.00 -0.00 -0.00 0.00 0.00 0.00 0.00 0.00 0.00 0.00 0.00 0.00 0.00 -0.00 0.00 0.00 -0.00 0.00 0.00 -0.00 0.00 0.00 0.00 0.00 0.00 0.00 0.00 0.02 0.05 0.08 0.12 0.14 0.13 0.09 0.05 0.03 0.04 0.03 0.02 0.00 0.00 0.00 0.00
MSLP
1017.60 1017.52 1017.44 1017.32 1017.20 1017.12 1016.84 1016.88 1017.08 1017.16 1017.16 1017.00 1016.92 1016.84 1016.80 1016.96 1016.96 1016.96 1017.00 1017.04 1017.08 1017.16 1017.32 1017.56 1017.76 1017.88 1018.00 1018.00 1018.00 1018.04 1018.00 1017.92 1017.92 1018.28 1018.56 1018.56 1018.52 1018.76 1019.20 1019.44 1019.52 1019.64 1020.12 1020.56 1020.88 1021.28 1021.64 1022.12 1022.52 1022.80 1022.96 1023.08
1018.00 1017.88 1017.80 1017.64 1017.52 1017.36 1017.04 1016.92 1017.00 1017.08 1017.16 1017.20 1017.00 1016.96 1017.04 1017.08 1017.08 1017.00 1017.00 1017.00 1017.04 1017.12 1017.24 1017.40 1017.56 1017.76 1017.96 1018.12 1018.20 1018.12 1018.00 1017.92 1017.92 1018.08 1018.44 1018.44 1018.44 1018.68 1019.00 1019.32 1019.48 1019.64 1020.08 1020.60 1020.88 1021.20 1021.52 1021.96 1022.44 1022.68 1022.88 1023.12
1018.52 1018.28 1018.12 1017.96 1017.88 1017.84 1017.72 1017.20 1017.00 1017.04 1017.12 1017.16 1017.12 1017.08 1017.04 1017.12 1017.24 1017.12 1017.00 1017.00 1017.00 1017.12 1017.20 1017.36 1017.52 1017.64 1017.84 1018.04 1018.20 1018.24 1018.12 1018.04 1017.92 1017.96 1018.12 1018.28 1018.48 1018.68 1018.84 1019.24 1019.56 1019.84 1020.12 1020.52 1020.84 1021.16 1021.44 1021.84 1022.28 1022.60 1022.84 1023.08
1018.84 1018.64 1018.48 1018.32 1018.12 1017.92 1017.76 1017.76 1017.72 1017.56 1017.36 1017.16 1017.12 1017.08 1017.04 1017.16 1017.16 1017.28 1017.24 1017.12 1017.04 1016.96 1017.12 1017.36 1017.48 1017.60 1017.64 1017.84 1017.96 1018.08 1018.16 1018.08 1017.96 1017.88 1018.12 1018.16 1018.32 1018.44 1018.68 1018.88 1019.16 1019.76 1020.12 1020.56 1020.84 1021.08 1021.36 1021.80 1022.16 1022.64 1022.92 1023.00
1019.12 1019.00 1018.76 1018.64 1018.52 1018.28 1018.04 1017.92 1017.88 1017.76 1017.84 1017.76 1017.44 1017.04 1017.00 1017.08 1017.16 1017.16 1017.32 1017.36 1017.24 1017.00 1017.00 1017.20 1017.40 1017.48 1017.56 1017.68 1017.76 1017.84 1018.00 1018.00 1017.96 1017.80 1018.00 1018.36 1018.40 1018.60 1018.56 1018.80 1019.04 1019.48 1020.04 1020.52 1020.88 1021.08 1021.36 1021.72 1022.28 1022.64 1022.84 1023.00
1019.48 1019.28 1019.04 1018.96 1018.84 1018.72 1018.60 1018.48 1018.36 1018.24 1018.24 1017.92 1017.72 1017.64 1017.20 1017.04 1017.08 1017.16 1017.20 1017.32 1017.40 1017.28 1017.00 1017.04 1017.20 1017.32 1017.48 1017.56 1017.64 1017.72 1017.84 1017.88 1017.92 1017.88 1017.80 1018.16 1018.36 1018.48 1018.64 1018.80 1019.12 1019.60 1020.12 1020.52 1020.92 1021.20 1021.44 1021.92 1022.28 1022.56 1022.76 1022.88
1019.84 1019.64 1019.44 1019.28 1019.16 1019.04 1018.88 1018.80 1018.64 1018.56 1018.32 1018.08 1017.88 1017.60 1017.60 1017.44 1017.16 1017.04 1017.00 1017.12 1017.32 1017.32 1017.12 1016.96 1016.96 1017.12 1017.32 1017.40 1017.52 1017.68 1017.76 1017.80 1017.80 1017.84 1017.76 1017.88 1018.32 1018.56 1018.64 1018.92 1019.28 1019.68 1020.12 1020.56 1021.00 1021.16 1021.64 1022.04 1022.24 1022.44 1022.64 1022.76
1020.08 1019.88 1019.72 1019.60 1019.52 1019.44 1019.28 1019.04 1018.84 1018.64 1018.56 1018.48 1018.24 1018.08 1017.88 1017.80 1017.64 1017.24 1017.00 1016.96 1016.92 1017.04 1017.16 1017.12 1016.76 1016.80 1017.04 1017.24 1017.40 1017.60 1017.76 1017.88 1017.80 1017.84 1017.84 1017.84 1018.24 1018.48 1018.76 1018.92 1019.28 1019.68 1020.04 1020.40 1020.92 1021.32 1021.64 1021.88 1022.08 1022.20 1022.44 1022.56
1020.24 1020.16 1020.00 1019.84 1019.64 1019.48 1019.36 1019.20 1019.04 1018.92 1018.76 1018.64 1018.48 1018.24 1017.96 1017.84 1017.76 1017.76 1017.44 1017.00 1016.84 1016.88 1016.96 1017.00 1017.08 1016.76 1016.72 1017.00 1017.28 1017.44 1017.68 1017.88 1017.96 1018.00 1018.04 1018.04 1018.08 1018.56 1018.88 1019.08 1019.36 1019.64 1020.04 1020.40 1020.88 1021.24 1021.60 1021.76 1022.00 1022.12 1022.32 1022.48
1020.68 1020.44 1020.24 1020.00 1019.84 1019.64 1019.52 1019.44 1019.28 1019.16 1019.08 1018.84 1018.64 1018.52 1018.24 1018.00 1017.88 1017.80 1017.80 1017.60 1017.04 1016.80 1016.88 1016.88 1016.84 1016.84 1016.68 1016.64 1016.92 1017.16 1017.48 1017.72 1017.96 1018.08 1018.20 1018.20 1018.48 1018.68 1018.80 1019.08 1019.44 1019.68 1019.92 1020.52 1020.92 1021.24 1021.44 1021.60 1021.80 1022.00 1022.16 1022.32
1020.92 1020.76 1020.60 1020.40 1020.20 1020.04 1019.72 1019.56 1019.52 1019.36 1019.20 1019.12 1018.96 1018.72 1018.48 1018.20 1017.96 1017.80 1017.84 1017.72 1017.72 1017.32 1016.80 1016.68 1016.72 1016.64 1016.68 1016.68 1016.68 1016.80 1017.12 1017.44 1017.72 1017.92 1018.12 1018.36 1018.52 1018.84 1019.00 1019.24 1019.48 1019.68 1020.04 1020.32 1020.76 1021.20 1021.40 1021.56 1021.68 1021.88 1022.00 1022.12
1021.16 1021.04 1020.84 1020.60 1020.32 1020.20 1020.04 1019.84 1019.68 1019.52 1019.40 1019.24 1019.08 1018.96 1018.80 1018.64 1018.40 1018.08 1017.92 1018.08 1017.76 1017.52 1017.60 1017.12 1016.44 1016.48 1016.60 1016.52 1016.52 1016.56 1016.68 1017.04 1017.40 1017.72 1017.96 1018.36 1018.72 1018.88 1019.20 1019.28 1019.60 1019.80 1020.04 1020.40 1020.64 1021.04 1021.36 1021.56 1021.68 1021.80 1021.88 1021.92
1021.44 1021.24 1021.12 1020.92 1020.68 1020.40 1020.16 1020.00 1019.88 1019.76 1019.48 1019.28 1019.12 1019.00 1018.96 1018.92 1018.68 1018.40 1018.20 1017.96 1017.72 1017.64 1017.44 1017.36 1017.44 1016.96 1016.56 1016.44 1016.40 1016.44 1016.56 1016.64 1017.00 1017.40 1017.72 1018.16 1018.64 1018.88 1019.08 1019.36 1019.56 1019.84 1020.12 1020.36 1020.68 1020.88 1021.24 1021.48 1021.64 1021.80 1021.92 1021.96
1021.32 1021.20 1021.16 1021.04 1020.92 1020.76 1020.48 1020.24 1020.04 1019.76 1019.60 1019.40 1019.28 1019.08 1019.00 1018.92 1018.92 1018.80 1018.48 1018.12 1017.84 1017.64 1017.44 1017.36 1017.04 1016.96 1016.92 1016.88 1016.44 1016.20 1016.28 1016.48 1016.60 1016.96 1017.44 1017.88 1018.40 1018.76 1018.88 1019.20 1019.36 1019.64 1020.04 1020.40 1020.64 1020.84 1021.00 1021.28 1021.44 1021.64 1021.80 1021.96
1021.36 1021.24 1021.16 1021.08 1020.96 1020.84 1020.64 1020.44 1020.20 1020.00 1019.80 1019.52 1019.36 1019.24 1019.16 1019.08 1019.00 1018.88 1018.68 1018.32 1018.00 1017.68 1017.48 1017.36 1017.20 1016.92 1016.68 1016.64 1016.68 1016.60 1016.08 1016.08 1016.20 1016.48 1016.80 1017.28 1017.84 1018.36 1018.64 1018.84 1019.12 1019.36 1019.76 1020.12 1020.56 1020.68 1020.84 1021.04 1021.40 1021.60 1021.76 1021.84
1021.28 1021.24 1021.16 1021.08 1021.00 1020.80 1020.68 1020.52 1020.32 1020.16 1019.96 1019.72 1019.48 1019.28 1019.20 1019.16 1019.16 1019.08 1018.84 1018.60 1018.20 1017.88 1017.60 1017.36 1017.16 1016.88 1016.72 1016.56 1016.48 1016.44 1016.32 1016.24 1016.00 1016.12 1016.36 1016.72 1017.16 1017.64 1018.16 1018.64 1019.04 1019.20 1019.40 1019.80 1020.08 1020.40 1020.60 1020.92 1021.20 1021.40 1021.60 1021.72
1021.32 1021.16 1021.08 1021.04 1020.92 1020.76 1020.60 1020.52 1020.44 1020.24 1020.04 1019.84 1019.64 1019.44 1019.24 1019.16 1019.16 1019.16 1019.12 1018.80 1018.48 1018.16 1017.80 1017.44 1017.16 1016.92 1016.72 1016.44 1016.20 1016.20 1016.36 1016.40 1016.28 1015.84 1016.08 1016.56 1016.92 1017.44 1017.88 1018.28 1018.72 1019.00 1019.16 1019.32 1019.68 1020.04 1020.24 1020.56 1020.80 1021.04 1021.32 1021.48
1021.28 1021.08 1021.00 1020.96 1020.88 1020.76 1020.60 1020.48 1020.40 1020.20 1020.04 1019.84 1019.68 1019.52 1019.28 1019.12 1019.04 1019.04 1019.12 1019.00 1018.68 1018.36 1018.04 1017.64 1017.28 1016.92 1016.64 1016.48 1016.24 1016.08 1016.16 1016.40 1016.40 1016.68 1016.24 1016.08 1016.72 1017.00 1017.40 1017.80 1018.16 1018.56 1018.84 1018.96 1019.24 1019.60 1019.84 1020.16 1020.28 1020.64 1020.96 1021.20
1021.36 1021.04 1020.96 1020.88 1020.80 1020.72 1020.52 1020.36 1020.24 1020.08 1019.88 1019.68 1019.56 1019.44 1019.20 1019.04 1018.96 1018.92 1018.92 1018.96 1018.88 1018.56 1018.28 1017.92 1017.56 1017.16 1016.80 1016.48 1016.32 1016.04 1015.88 1015.88 1016.16 1016.44 1016.68 1016.40 1016.20 1016.68 1017.00 1017.32 1017.84 1018.00 1018.04 1018.40 1018.84 1019.12 1019.56 1019.76 1020.08 1020.44 1020.56 1020.88
1021.44 1021.04 1020.84 1020.84 1020.72 1020.56 1020.40 1020.20 1020.04 1019.84 1019.68 1019.52 1019.44 1019.24 1019.00 1018.80 1018.72 1018.80 1018.76 1018.76 1018.72 1018.64 1018.44 1018.20 1017.84 1017.44 1017.04 1016.72 1016.52 1016.36 1016.00 1015.80 1015.72 1015.88 1016.20 1016.64 1016.48 1016.44 1016.84 1017.04 1017.44 1017.76 1017.80 1018.04 1018.16 1018.64 1019.04 1019.44 1019.84 1020.08 1020.36 1020.56
1021.40 1021.04 1020.72 1020.64 1020.60 1020.48 1020.24 1020.00 1019.72 1019.56 1019.40 1019.24 1019.12 1018.92 1018.72 1018.52 1018.48 1018.48 1018.60 1018.56 1018.52 1018.48 1018.36 1018.16 1017.96 1017.64 1017.20 1016.88 1016.68 1016.56 1016.32 1016.08 1015.60 1015.48 1015.56 1015.96 1016.56 1016.32 1015.88 1016.48 1016.68 1017.40 1017.60 1017.84 1018.00 1018.36 1018.64 1019.00 1019.36 1019.76 1020.00 1020.16
1021.48 1021.16 1020.84 1020.64 1020.52 1020.36 1020.16 1019.80 1019.52 1019.24 1019.04 1018.92 1018.76 1018.68 1018.52 1018.32 1018.24 1018.24 1018.28 1018.28 1018.28 1018.24 1018.16 1018.04 1017.88 1017.60 1017.36 1017.04 1016.72 1016.56 1016.56 1016.40 1015.96 1015.56 1015.32 1015.36 1015.72 1016.24 1016.40 1016.40 1016.36 1016.80 1017.32 1017.64 1018.04 1018.36 1018.44 1018.60 1018.92 1019.20 1019.68 1019.96
1021.36 1021.12 1020.88 1020.68 1020.48 1020.28 1020.04 1019.72 1019.44 1019.16 1018.92 1018.72 1018.56 1018.44 1018.24 1018.12 1018.00 1018.04 1018.08 1018.08 1017.96 1017.96 1017.84 1017.80 1017.72 1017.56 1017.36 1017.16 1016.88 1016.56 1016.40 1016.32 1016.28 1016.04 1015.60 1015.36 1015.28 1015.52 1015.76 1015.84 1015.84 1015.92 1016.56 1017.20 1017.56 1017.96 1018.20 1018.44 1018.48 1018.76 1019.24 1019.72
1021.08 1020.96 1020.80 1020.64 1020.48 1020.32 1020.04 1019.76 1019.52 1019.28 1019.08 1018.80 1018.60 1018.28 1018.04 1017.92 1017.88 1017.88 1017.88 1017.84 1017.76 1017.68 1017.60 1017.56 1017.52 1017.48 1017.32 1017.16 1017.00 1016.68 1016.32 1016.12 1016.20 1016.20 1015.96 1015.48 1015.24 1015.36 1015.44 1015.48 1015.56 1015.76 1016.28 1016.84 1017.28 1017.64 1018.20 1018.52 1018.68 1018.76 1018.92 1019.28
1020.96 1020.84 1020.64 1020.64 1020.56 1020.32 1020.04 1019.84 1019.52 1019.28 1018.96 1018.72 1018.44 1018.16 1017.96 1017.76 1017.68 1017.68 1017.60 1017.56 1017.56 1017.48 1017.32 1017.28 1017.28 1017.28 1017.28 1017.20 1017.08 1016.84 1016.56 1016.24 1016.00 1016.08 1016.16 1015.96 1015.44 1015.16 1015.32 1015.36 1015.44 1015.56 1015.92 1016.68 1017.68 1018.12 1018.44 1018.76 1019.00 1018.96 1019.00 1019.04
1021.04 1020.88 1020.76 1020.76 1020.64 1020.36 1020.08 1019.76 1019.44 1019.08 1018.80 1018.52 1018.24 1018.08 1017.84 1017.68 1017.48 1017.40 1017.32 1017.32 1017.28 1017.20 1017.12 1016.96 1016.96 1017.00 1017.04 1017.04 1017.00 1016.88 1016.64 1016.32 1016.04 1015.80 1015.84 1015.88 1015.80 1015.40 1015.16 1015.12 1015.20 1015.48 1015.92 1016.80 1016.40 1017.28 1018.20 1018.72 1019.00 1019.16 1019.08 1019.08
1021.00 1020.80 1020.68 1020.64 1020.48 1020.24 1019.96 1019.68 1019.40 1019.12 1018.80 1018.52 1018.36 1018.08 1017.84 1017.56 1017.32 1017.16 1017.12 1017.08 1016.96 1016.92 1016.80 1016.64 1016.60 1016.60 1016.64 1016.72 1016.72 1016.68 1016.60 1016.48 1016.20 1015.92 1015.76 1015.76 1015.88 1015.60 1015.32 1015.00 1015.00 1015.48 1015.52 1015.32 1015.60 1015.92 1017.04 1018.08 1018.48 1018.52 1019.08 1019.00
1020.96 1020.84 1020.68 1020.48 1020.28 1020.04 1019.84 1019.52 1019.12 1018.88 1018.60 1018.48 1018.32 1018.04 1017.72 1017.52 1017.32 1017.08 1016.92 1016.76 1016.72 1016.60 1016.40 1016.28 1016.20 1016.16 1016.20 1016.28 1016.40 1016.48 1016.44 1016.36 1016.28 1016.04 1015.76 1015.64 1015.64 1015.80 1015.60 1015.28 1014.96 1014.96 1015.24 1015.48 1015.72 1016.72 1016.00 1016.24 1016.84 1017.40 1017.68 1017.60
1020.96 1020.80 1020.60 1020.32 1020.04 1019.80 1019.52 1019.20 1019.00 1018.76 1018.40 1018.12 1017.92 1017.76 1017.60 1017.32 1017.08 1016.92 1016.76 1016.60 1016.44 1016.32 1016.08 1015.84 1015.76 1015.76 1015.76 1015.80 1015.96 1016.12 1016.16 1016.16 1016.08 1016.00 1015.88 1015.64 1015.56 1015.52 1015.64 1015.32 1014.92 1015.00 1015.12 1015.28 1015.24 1015.24 1015.88 1017.32 1017.12 1015.64 1014.44 1016.24
1020.92 1020.84 1020.68 1020.40 1020.16 1019.84 1019.56 1019.32 1019.04 1018.80 1018.36 1017.96 1017.80 1017.56 1017.20 1017.04 1016.96 1016.72 1016.48 1016.28 1016.12 1016.00 1015.88 1015.60 1015.40 1015.36 1015.40 1015.44 1015.48 1015.64 1015.76 1015.80 1015.84 1015.88 1015.80 1015.64 1015.44 1015.28 1015.24 1015.44 1015.16 1014.96 1015.16 1015.24 1015.16 1014.96 1014.52 1013.84 1013.60 1014.36 1015.40 1015.80
1020.80 1020.68 1020.52 1020.32 1020.12 1019.88 1019.64 1019.40 1018.84 1018.40 1018.08 1017.88 1017.60 1017.36 1017.16 1016.92 1016.68 1016.44 1016.20 1016.00 1015.80 1015.64 1015.56 1015.40 1015.24 1015.08 1015.00 1015.00 1015.04 1015.08 1015.24 1015.44 1015.52 1015.44 1015.44 1015.44 1015.48 1015.32 1015.08 1015.16 1015.40 1015.20 1015.08 1015.44 1015.40 1015.12 1014.72 1014.52 1014.60 1014.20 1014.68 1014.68
Thickness
5569 5570 5570 5571 5570 5570 5573 5573 5571 5571 5570 5571 5572 5573 5574 5574 5575 5576 5577 5577 5576 5575 5575 5574 5573 5573 5573 5574 5574 5576 5578 5580 5581 5579 5579 5581 5580 5579 5578 5579 5580 5580 5576 5574 5575 5574 5572 5571 5569 5569 5569 5570
5561 5562 5562 5563 5563 5563 5565 5567 5566 5565 5564 5564 5566 5566 5567 5566 5568 5569 5570 5571 5570 5570 5570 5569 5568 5567 5567 5567 5567 5570 5572 5574 5576 5575 5574 5575 5576 5575 5574 5575 5575 5575 5570 5568 5570 5569 5568 5567 5564 5565 5565 5565
5552 5554 5554 5555 5555 5556 5557 5558 5559 5558 5558 5558 5559 5560 5560 5561 5561 5562 5564 5565 5564 5564 5564 5564 5563 5562 5562 5561 5561 5562 5564 5566 5569 5570 5570 5571 5571 5570 5571 5571 5571 5570 5565 5563 5564 5564 5564 5563 5560 5560 5561 5561
5544 5545 5546 5547 5548 5549 5549 5550 5550 5550 5551 5551 5553 5554 5554 5555 5556 5556 5556 5557 5557 5558 5558 5558 5557 5557 5557 5557 5556 5557 5558 5560 5562 5564 5564 5565 5566 5566 5567 5567 5567 5567 5562 5559 5559 5560 5559 5558 5556 5556 5557 5557
5536 5537 5538 5539 5539 5540 5541 5542 5542 5542 5542 5543 5545 5547 5549 5549 5550 5550 5550 5550 5551 5552 5553 5553 5552 5552 5551 5552 5552 5552 5552 5554 5556 5557 5557 5558 5559 5561 5563 5563 5563 5562 5558 5554 5554 5555 5555 5553 5553 5553 5553 5553
5528 5529 5530 5531 5531 5532 5533 5533 5533 5533 5533 5535 5537 5538 5541 5543 5544 5544 5544 5545 5544 5545 5547 5548 5548 5547 5546 5547 5547 5547 5547 5548 5549 5551 5551 5551 5552 5554 5557 5558 5558 5556 5552 5549 5549 5550 5550 5549 5549 5549 5548 5549
5519 5520 5521 5522 5523 5523 5524 5525 5525 5526 5526 5527 5530 5531 5532 5534 5536 5538 5539 5539 5539 5539 5540 5542 5544 5543 5541 5541 5542 5542 5542 5543 5543 5544 5545 5547 5547 5547 5550 5553 5551 5549 5547 5545 5543 5544 5544 5544 5545 5545 5545 5544
5512 5512 5513 5513 5514 5515 5515 5517 5518 5519 5519 5520 5521 5523 5524 5524 5526 5529 5531 5533 5534 5534 5534 5535 5538 5539 5538 5536 5536 5536 5536 5537 5537 5538 5538 5540 5540 5541 5545 5546 5544 5543 5542 5540 5538 5538 5539 5539 5541 5542 5542 5542
5502 5503 5504 5505 5505 5506 5507 5508 5510 5510 5511 5512 5513 5514 5516 5517 5518 5520 5522 5524 5527 5528 5528 5529 5531 5533 5533 5532 5532 5531 5531 5531 5531 5532 5532 5533 5534 5536 5539 5538 5537 5537 5535 5534 5534 5534 5535 5535 5537 5538 5538 5538
5491 5492 5494 5496 5497 5498 5499 5500 5501 5502 5503 5503 5505 5505 5507 5510 5510 5512 5512 5514 5518 5521 5523 5524 5525 5526 5528 5528 5528 5526 5526 5526 5525 5526 5526 5527 5528 5530 5532 5530 5530 5531 5529 5527 5527 5528 5529 5529 5532 5532 5533 5532
5481 5482 5483 5484 5487 5488 5490 5491 5491 5493 5494 5495 5496 5496 5498 5500 5502 5504 5503 5503 5507 5511 5515 5518 5520 5520 5522 5522 5524 5523 5522 5521 5520 5520 5519 5520 5522 5523 5523 5523 5523 5523 5522 5521 5521 5522 5522 5523 5526 5527 5527 5527
5472 5473 5474 5474 5476 5478 5480 5481 5482 5483 5485 5486 5487 5488 5489 5490 5492 5494 5495 5495 5497 5501 5504 5507 5511 5513 5515 5516 5518 5518 5517 5517 5516 5515 5514 5514 5515 5516 5516 5515 5516 5516 5515 5514 5515 5515 5515 5517 5519 5520 5520 5521
5463 5463 5464 5464 5466 5467 5469 5471 5472 5474 5476 5477 5478 5479 5480 5480 5482 5483 5486 5488 5489 5492 5495 5496 5499 5503 5506 5509 5511 5512 5512 5512 5511 5510 5509 5507 5508 5509 5509 5509 5509 5508 5507 5507 5508 5509 5509 5510 5512 5513 5513 5514
5453 5453 5454 5454 5456 5457 5458 5460 5462 5464 5466 5467 5469 5470 5471 5471 5472 5473 5475 5479 5481 5483 5486 5487 5490 5494 5497 5500 5503 5505 5507 5508 5507 5506 5504 5503 5502 5502 5503 5503 5503 5502 5501 5500 5501 5502 5503 5503 5505 5506 5506 5508
5443 5443 5443 5444 5445 5446 5448 5449 5451 5453 5455 5457 5458 5460 5461 5462 5462 5463 5466 5468 5472 5474 5477 5479 5481 5486 5490 5492 5494 5496 5500 5502 5503 5502 5501 5500 5498 5497 5498 5497 5497 5498 5496 5495 5495 5496 5497 5498 5498 5498 5499 5501
5433 5432 5432 5432 5433 5435 5436 5437 5440 5441 5444 5446 5448 5449 5450 5451 5451 5452 5454 5457 5461 5465 5468 5470 5473 5477 5481 5485 5488 5489 5491 5493 5496 5498 5497 5496 5496 5494 5493 5491 5491 5492 5493 5492 5491 5491 5491 5491 5492 5492 5493 5494
5422 5422 5422 5422 5422 5423 5424 5425 5427 5429 5431 5434 5436 5438 5439 5440 5441 5441 5443 5446 5450 5454 5458 5461 5465 5468 5472 5476 5480 5482 5481 5483 5487 5490 5491 5491 5490 5489 5488 5486 5486 5486 5486 5487 5487 5487 5486 5486 5487 5486 5486 5488
5411 5412 5411 5412 5411 5412 5413 5414 5415 5417 5419 5422 5424 5426 5428 5430 5430 5431 5432 5435 5438 5442 5447 5451 5454 5459 5463 5466 5470 5473 5474 5475 5477 5478 5480 5484 5484 5484 5483 5482 5481 5481 5482 5482 5481 5481 5481 5481 5482 5481 5481 5481
5399 5401 5401 5401 5401 5401 5402 5403 5404 5406 5408 5410 5412 5415 5417 5419 5420 5420 5421 5424 5428 5430 5434 5438 5443 5448 5452 5456 5459 5463 5466 5469 5471 5469 5470 5474 5477 5477 5478 5477 5476 5476 5478 5477 5477 5477 5477 5477 5476 5476 5477 5476
5386 5388 5390 5390 5390 5391 5391 5392 5394 5395 5398 5400 5401 5404 5407 5409 5410 5410 5411 5413 5416 5419 5422 5425 5431 5436 5440 5445 5447 5451 5456 5460 5464 5465 5464 5464 5466 5468 5471 5472 5471 5471 5472 5473 5473 5472 5471 5471 5471 5471 5471 5472
5373 5374 5376 5376 5376 5377 5379 5381 5384 5386 5388 5389 5391 5394 5397 5400 5401 5401 5401 5402 5405 5408 5412 5415 5419 5423 5427 5433 5437 5440 5443 5447 5454 5458 5460 5459 5458 5460 5463 5466 5467 5465 5465 5465 5466 5465 5466 5466 5465 5466 5467 5467
5359 5360 5361 5361 5361 5362 5365 5368 5372 5375 5378 5380 5382 5384 5386 5389 5390 5392 5392 5393 5394 5397 5401 5405 5408 5412 5415 5420 5425 5430 5432 5436 5441 5447 5451 5454 5454 5454 5454 5457 5460 5461 5460 5459 5458 5457 5458 5459 5460 5461 5460 5460
5344 5345 5345 5345 5346 5347 5350 5353 5357 5361 5364 5368 5371 5374 5376 5378 5379 5379 5380 5382 5384 5386 5390 5393 5397 5401 5403 5408 5413 5419 5423 5426 5430 5434 5438 5444 5448 5449 5449 5451 5454 5457 5455 5452 5451 5450 5450 5451 5453 5455 5454 5454
5330 5330 5329 5329 5330 5331 5334 5337 5340 5343 5347 5351 5357 5361 5364 5367 5367 5367 5367 5369 5372 5376 5379 5382 5385 5388 5391 5396 5400 5406 5413 5418 5421 5422 5426 5432 5438 5441 5443 5446 5447 5449 5448 5444 5443 5442 5440 5441 5443 5446 5447 5448
5314 5313 5312 5312 5313 5315 5318 5319 5321 5325 5329 5333 5339 5345 5349 5353 5355 5356 5356 5357 5359 5363 5367 5371 5374 5376 5379 5383 5388 5393 5400 5406 5411 5414 5415 5419 5426 5430 5434 5437 5440 5441 5439 5434 5431 5430 5431 5432 5433 5435 5439 5443
5297 5296 5295 5293 5295 5297 5299 5301 5303 5306 5311 5315 5320 5326 5331 5335 5339 5342 5345 5346 5348 5351 5354 5360 5363 5365 5367 5370 5375 5380 5387 5393 5399 5404 5407 5409 5412 5418 5424 5428 5432 5432 5429 5426 5427 5430 5425 5421 5422 5426 5430 5435
5279 5278 5277 5275 5276 5279 5280 5282 5285 5287 5292 5296 5300 5306 5311 5316 5320 5325 5330 5334 5335 5339 5344 5348 5352 5355 5357 5359 5363 5368 5374 5380 5386 5391 5396 5399 5401 5405 5411 5417 5421 5421 5421 5424 5427 5424 5418 5417 5420 5420 5421 5429
5260 5259 5259 5258 5258 5260 5261 5263 5267 5269 5272 5277 5280 5286 5291 5295 5299 5304 5312 5318 5321 5325 5332 5337 5340 5343 5347 5349 5352 5356 5361 5366 5372 5378 5383 5387 5391 5394 5397 5404 5409 5412 5415 5418 5416 5412 5412 5415 5414 5417 5428 5435
5242 5241 5241 5241 5241 5243 5244 5245 5248 5250 5253 5258 5262 5267 5272 5275 5279 5284 5291 5299 5304 5309 5317 5323 5329 5333 5336 5338 5341 5344 5349 5354 5359 5364 5370 5375 5379 5384 5386 5391 5398 5402 5404 5407 5408 5407 5409 5408 5409 5424 5440 5436
5226 5224 5223 5223 5224 5225 5227 5228 5231 5233 5235 5241 5245 5248 5252 5256 5260 5265 5272 5280 5287 5293 5300 5307 5314 5319 5324 5328 5330 5333 5337 5342 5347 5352 5357 5362 5366 5372 5376 5379 5384 5389 5393 5395 5398 5400 5405 5409 5416 5427 5429 5424
5212 5210 5210 5209 5209 5210 5211 5213 5218 5221 5222 5226 5230 5232 5237 5240 5244 5249 5255 5263 5271 5277 5282 5289 5298 5304 5310 5315 5319 5322 5326 5330 5335 5340 5346 5349 5354 5360 5365 5367 5369 5376 5381 5382 5385 5389 5395 5403 5410 5415 5416 5420